Flag for Canada Weather past 2 weeks in Pond Inlet, Nunavut Territory, Canada

Now
-22 °F

Snow flurries. Clear.


Feels Like: -41 °F
Forecast: -21 / -19 °F
Wind: 8 mph from South

Location: Pond Inlet

Current Time: Dec 18, 2014 at 7:20:15 PM

Latest Report: Dec 18, 2014 at 7:00 PM


Visibility: 15 mi

Pressure: 29.99 "Hg

Humidity: 75%

Dew point: -27 °F

Location of Pond InletLocation

Historic Weather in Pond Inlet — Graph

°F

Pond Inlet temperature yesterday

Maximum temperature yesterday: -9 °F (at 5:00 AM)
Minimum temperature yesterday: -18 °F (at 6:55 AM)
Average temperature yesterday: -15 °F

Past Weeks' High & Low Weather Summary

 TemperatureHumidityPressure
High5 °F (Dec 10, 6:00 PM)92% (Dec 10, 3:00 PM)30.13 "Hg (Dec 10, 3:00 PM)
Low-33 °F (Dec 8, 10:00 AM)60% (Dec 8, 11:00 AM)29.43 "Hg (Dec 11, 9:00 AM)
Average-18 °F75%29.84 "Hg
* Reported Dec 3 6:00 PM — Dec 18 6:00 PM, Pond Inlet, Weather by CustomWeather, © 2014

Note: Actual official high and low records may vary slightly from our data, if they occured in-between our weather recording intervals... More about our weather records

Advertising

Pond Inlet weather history for previous 24 hours

 ConditionsComfort  
Time TempWeatherWind HumidityBarometerVisibility
6:00 PM
Dec 18
-24 °FSnow flurries. Sunny.5 mph68%29.99 "Hg15 mi
5:00 PM-22 °FSnow flurries. Passing clouds.2 mph75%29.98 "Hg15 mi
4:00 PM-22 °FSnow flurries. Passing clouds.No wind83%29.97 "Hg15 mi
3:00 PM-24 °FSnow flurries. Scattered clouds.5 mph75%29.96 "Hg15 mi
2:00 PM-20 °FSnow flurries. Scattered clouds.2 mph75%29.95 "Hg15 mi
1:00 PM-18 °FLight snow. Scattered clouds.5 mph75%29.94 "Hg9 mi
12:00 PM-20 °FSnow flurries. Broken clouds.9 mph75%29.93 "Hg15 mi
11:00 AM-18 °FLight snow. Scattered clouds.7 mph75%29.93 "Hg6 mi
10:00 AM-18 °FLight snow. Mostly cloudy.No wind75%29.93 "Hg9 mi
9:04 AM-18 °FLight snow. Overcast.5 mph75%29.92 "Hg5 mi
8:00 AM-18 °FLight snow. Overcast.8 mph75%29.91 "Hg8 mi
7:00 AM-18 °FMore clouds than sun.7 mph75%29.91 "Hg9 mi
6:00 AM-20 °FPartly sunny.7 mph75%29.91 "Hg9 mi
5:00 AM-18 °FClear.8 mph75%29.92 "Hg9 mi
4:00 AM-18 °FOvercast.No wind83%29.91 "Hg9 mi
3:00 AM-18 °FClear.7 mph75%29.91 "Hg9 mi
2:00 AM-20 °FClear.7 mph75%29.90 "Hg9 mi
1:00 AM-20 °FClear.7 mph75%29.89 "Hg9 mi
12:00 AM-18 °FSunny.8 mph83%29.88 "Hg9 mi
11:00 PM
Dec 17
-18 °FPassing clouds.6 mph83%29.87 "Hg9 mi
10:00 PM-17 °FClear.7 mph76%29.87 "Hg9 mi
9:00 PM-18 °FClear.6 mph83%29.85 "Hg9 mi
8:00 PM-18 °FClear.3 mph75%29.84 "Hg9 mi
7:00 PM-18 °FClear.5 mph75%29.83 "Hg9 mi
Weather by CustomWeather, © 2014

See weather overviewHow to use our weather pages